This is the latest recevied weather packets stored in our database for station/object K6GMW. If no packets are shown the sender has not sent any weather packets the latest 10 day(s).
| Time | Temp. | Humidity | Pressure | Rain* | Wind** | Luminosity | Snow |
|---|---|---|---|---|---|---|---|
| 1777728087 | 13.89° C | 89% | 1021.4 hPa | 0 mm | - | 292 W/m² | - |
| 1777727784 | 13.89° C | 91% | 1021.4 hPa | 0 mm | - | 234 W/m² | - |
| 1777727481 | 13.89° C | 92% | 1021.5 hPa | 0 mm | - | 198 W/m² | - |
| 1777727178 | 12.78° C | 94% | 1021.4 hPa | 0 mm | - | 171 W/m² | - |
| 1777726876 | 12.78° C | 95% | 1021.4 hPa | 0 mm | - | 134 W/m² | - |
| 1777726572 | 12.22° C | 97% | 1021.4 hPa | 0 mm | - | 146 W/m² | - |
| 1777726269 | 11.67° C | 98% | 1021.4 hPa | 0 mm | - | 136 W/m² | - |
| 1777725966 | 11.11° C | 98% | 1021.4 hPa | 0 mm | - | 122 W/m² | - |
| 1777725663 | 11.11° C | 98% | 1021.3 hPa | 0 mm | - | 65 W/m² | - |
| 1777725361 | 10.56° C | 98% | 1021.2 hPa | 0 mm | - | 71 W/m² | - |
| 1777725058 | 10° C | 98% | 1021.2 hPa | 0 mm | - | 69 W/m² | - |
| 1777724754 | 10° C | 98% | 1021.5 hPa | 0 mm | - | 62 W/m² | - |
| 1777724452 | 9.44° C | 98% | 1021.5 hPa | 0 mm | - | 54 W/m² | - |
| 1777724149 | 9.44° C | 98% | 1021.1 hPa | 0 mm | - | 42 W/m² | - |
| 1777723847 | 9.44° C | 98% | 1021 hPa | 0 mm | - | 36 W/m² | - |
| 1777723542 | 9.44° C | 98% | 1020.9 hPa | 0 mm | - | 31 W/m² | - |
| 1777723240 | 9.44° C | 98% | 1020.7 hPa | 0 mm | - | 28 W/m² | - |
| 1777722938 | 9.44° C | 98% | 1020.4 hPa | 0 mm | - | 23 W/m² | - |
| 1777722633 | 9.44° C | 98% | 1020.1 hPa | 0 mm | - | 19 W/m² | - |
| 1777722330 | 9.44° C | 98% | 1020.2 hPa | 0 mm | - | 14 W/m² | - |
| 1777722027 | 9.44° C | 98% | 1020.1 hPa | 0 mm | - | 10 W/m² | - |
| 1777721724 | 9.44° C | 98% | 1020 hPa | 0 mm | - | 6 W/m² | - |
| 1777721423 | 9.44° C | 98% | 1019.8 hPa | 0 mm | - | 4 W/m² | - |
| 1777721120 | 9.44° C | 98% | 1019.9 hPa | 0 mm | - | 2 W/m² | - |
| 1777720818 | 9.44° C | 97% | 1019.7 hPa | 0 mm | - | 1 W/m² | - |
* Rain latest hour (hover to see other rain measurements)
** Current wind speed in m/s (hover to see current wind gust speed)